sat.trackr.live / text

‹ back to catalog

STARLINK-3051

NORAD 49157 · 2021-082AD

PAYLOAD ACTIVE UNKNOWN

§ Identity

Operator
Country
US
Launch date
2021-09-14
Launch site
AFWTR
Launch vehicle
Mass (kg)
RCS (m²)

Purposes: comms

External: N2YO · Heavens-Above · Gunter

§ Orbital elements

Epoch: 2026-05-25T02:39:31.122432Z

Period
95.66 min
Inclination
69.9978°
Eccentricity
0.0003580
Mean motion
15.05349043 rev/d
Perigee alt
548.0 km
Apogee alt
552.9 km
Semi-major
6,928.6 km
B*
3.3493e-4
RAAN
77.0725°
Arg perigee
197.1065°
Mean anomaly
162.9977°
Rev number
25,913

§ Raw data

STARLINK-30511 49157U 21082AD  26145.11077688  .00004711  00000+0  33493-3 0  99922 49157  69.9978  77.0725 0003580 197.1065 162.9977 15.05349043259134

JSON: /api/v1/satellites/49157 · /tle

For live sub-satellite position, see the globe view (requires WebGL).

§ Visibility from observer

Set your observer location to see the next 7 days of passes ≥ 10°. The values pass through the URL so the page stays shareable.

No JS? Fill the form by hand. The geolocation button needs JavaScript.